EW4565 Weather Reports


Display with metric or nautical units.
time (UTC)temp
F
wind
direction
speed
MPH
gust
MPH
rain 1hr
in
rain 24hr
in
rain mn
in
humidity
%
barometer
mb
20260906202811 69 284 1.0 5.0 0.00 0.00 0.00 48 1013.1
20260906202310 69 260 1.0 5.0 0.00 0.00 0.00 46 1013.2
20260906201811 69 253 1.0 6.0 0.00 0.00 0.00 48 1013.2
20260906201309 69 313 1.0 6.0 0.00 0.00 0.00 50 1013.3
20260906200808 68 330 1.0 6.0 0.00 0.00 0.00 51 1013.4
20260906200304 67 241 1.0 6.0 0.00 0.00 0.00 51 1013.4
20260906200125 67 299 1.0 5.0 0.00 0.00 0.00 52 1013.6
20260906195306 66 324 1.0 5.0 0.00 0.00 0.00 51 1013.6
20260906194804 66 233 1.0 7.0 0.00 0.00 0.00 54 1013.5
20260906194303 65 323 1.0 7.0 0.00 0.00 0.00 55 1013.6
20260906193805 65 223 1.0 8.0 0.00 0.00 0.00 54 1013.7
20260906193305 65 229 1.0 8.0 0.00 0.00 0.00 56 1013.9
20260906192804 65 287 1.0 6.0 0.00 0.00 0.00 55 1014.0
20260906192307 64 282 1.0 6.0 0.00 0.00 0.00 57 1014.1
20260906191805 64 274 1.0 5.0 0.00 0.00 0.00 58 1014.2
20260906191305 64 257 1.0 6.0 0.00 0.00 0.00 57 1014.2
20260906190805 64 311 1.0 6.0 0.00 0.00 0.00 57 1014.2
20260906190623 63 253 1.0 6.0 0.00 0.00 0.00 59 1014.2
20260906185804 63 268 1.0 6.0 0.00 0.00 0.00 59 1014.2
20260906185306 63 324 1.0 5.0 0.00 0.00 0.00 59 1014.3
20260906184800 63 287 1.0 5.0 0.00 0.00 0.00 59 1014.3
20260906184304 63 297 1.0 9.0 0.00 0.00 0.00 60 1014.6
20260906183937 62 301 1.0 6.0 0.00 0.00 0.00 62 1014.7
20260906183901 63 299 1.0 9.0 0.00 0.00 0.00 59 1014.7
20260906183127 62 300 1.0 7.0 0.00 0.00 0.00 63 1014.8
20260906182306 62 308 1.0 7.0 0.00 0.00 0.00 63 1015.0
20260906182119 62 286 1.0 4.0 0.00 0.00 0.00 63 1014.9
20260906181302 61 264 1.0 6.0 0.00 0.00 0.00 64 1014.8
20260906180802 61 288 1.0 6.0 0.00 0.00 0.00 64 1015.0
20260906180302 61 237 0.0 7.0 0.00 0.00 0.00 66 1015.1
20260906175801 61 295 1.0 7.0 0.00 0.00 0.00 67 1015.2
20260906175306 60 276 0.0 3.0 0.00 0.00 0.00 68 1015.3
20260906174803 60 264 0.0 3.0 0.00 0.00 0.00 68 1015.3
20260906174304 60 263 0.0 3.0 0.00 0.00 0.00 69 1015.4
20260906174109 59 268 1.0 6.0 0.00 0.00 0.00 70 1015.5
20260906173301 59 275 1.0 6.0 0.00 0.00 0.00 70 1015.6
20260906172803 59 308 0.0 4.0 0.00 0.00 0.00 69 1015.6
20260906172301 59 310 1.0 5.0 0.00 0.00 0.00 70 1015.6
20260906171800 58 309 0.0 5.0 0.00 0.00 0.00 72 1015.6
20260906171303 58 309 0.0 3.0 0.00 0.00 0.00 76 1015.6
20260906170800 58 310 0.0 2.0 0.00 0.00 0.00 76 1015.7
20260906170303 58 310 0.0 2.0 0.00 0.00 0.00 76 1015.7
20260906165805 57 310 0.0 2.0 0.00 0.00 0.00 76 1015.8
20260906165306 57 310 0.0 3.0 0.00 0.00 0.00 76 1015.8
20260906164804 57 310 0.0 3.0 0.00 0.00 0.00 76 1015.8
20260906164305 56 310 0.0 0.0 0.00 0.00 0.00 77 1015.9
20260906163808 56 311 0.0 0.0 0.00 0.00 0.00 76 1016.1
20260906163306 56 310 0.0 0.0 0.00 0.00 0.00 76 1016.3
20260906162810 56 310 0.0 1.0 0.00 0.00 0.00 76 1016.2
20260906162305 56 311 0.0 1.0 0.00 0.00 0.00 76 1016.3
20260906161802 56 310 0.0 1.0 0.00 0.00 0.00 76 1016.4
20260906161301 56 310 0.0 1.0 0.00 0.00 0.00 76 1016.4
20260906161009 56 311 0.0 0.0 0.00 0.00 0.00 75 1016.5
20260906160754 56 310 0.0 0.0 0.00 0.00 0.00 76 1016.5
20260906155301 56 312 0.0 1.0 0.00 0.00 0.00 74 1016.7
20260906155107 57 312 0.0 3.0 0.00 0.00 0.00 73 1016.7
20260906154303 57 312 0.0 3.0 0.00 0.00 0.00 72 1016.6
20260906153801 58 312 0.0 1.0 0.00 0.00 0.00 71 1016.6
20260906153303 59 312 0.0 0.0 0.00 0.00 0.00 70 1016.7
20260906153122 58 312 0.0 0.0 0.00 0.00 0.00 71 1016.8
20260906152306 57 312 0.0 0.0 0.00 0.00 0.00 75 1016.9
20260906151805 56 312 0.0 0.0 0.00 0.00 0.00 76 1017.0
20260906151306 55 312 0.0 0.0 0.00 0.00 0.00 79 1017.0
20260906150807 53 312 0.0 0.0 0.00 0.00 0.00 80 1016.9
20260906150304 53 312 0.0 0.0 0.00 0.00 0.00 80 1017.0
20260906145803 52 312 0.0 0.0 0.00 0.00 0.00 80 1017.1
20260906145616 52 312 0.0 0.0 0.00 0.00 0.00 81 1017.1
20260906144802 52 312 0.0 0.0 0.00 0.00 0.00 81 1017.1
20260906144302 51 312 0.0 0.0 0.00 0.00 0.00 81 1017.2
20260906144114 51 312 0.0 0.0 0.00 0.00 0.00 82 1017.1
20260906143304 51 312 0.0 0.0 0.00 0.00 0.00 83 1017.0
20260906142801 50 312 0.0 0.0 0.00 0.00 0.00 83 1017.1
20260906142339 50 312 0.0 0.0 0.00 0.00 0.00 84 1017.0
20260906141801 50 312 0.0 0.0 0.00 0.00 0.00 84 1017.0
20260906141302 49 316 0.0 0.0 0.00 0.00 0.00 85 1017.0
20260906140801 49 317 0.0 0.0 0.00 0.00 0.00 85 1017.1
20260906140608 49 316 0.0 0.0 0.00 0.00 0.00 85 1017.1
20260906135802 48 316 0.0 0.0 0.00 0.00 0.00 85 1017.2
20260906135306 48 316 0.0 0.0 0.00 0.00 0.00 85 1017.2
20260906134802 48 316 0.0 0.0 0.00 0.00 0.00 84 1017.2
20260906134622 49 316 0.0 0.0 0.00 0.00 0.00 84 1017.1
20260906133801 49 316 0.0 0.0 0.00 0.00 0.00 83 1016.9
20260906133302 49 316 0.0 0.0 0.00 0.00 0.00 83 1016.9
20260906132801 49 316 0.0 0.0 0.00 0.00 0.00 84 1016.9
20260906132301 49 316 0.0 0.0 0.00 0.00 0.00 85 1016.9
20260906132123 49 316 0.0 0.0 0.00 0.00 0.00 85 1016.9
20260906131302 49 316 0.0 0.0 0.00 0.00 0.00 85 1016.8
20260906130800 49 317 0.0 0.0 0.00 0.00 0.00 84 1016.9
20260906130305 49 316 0.0 0.0 0.00 0.00 0.00 84 1017.0
20260906125805 49 316 0.0 0.0 0.00 0.00 0.00 84 1017.2
20260906125306 49 316 0.0 0.0 0.00 0.00 0.00 84 1017.2
20260906124804 49 316 0.0 0.0 0.00 0.00 0.00 84 1017.3
20260906124308 49 316 0.0 0.0 0.00 0.00 0.00 84 1017.0
20260906123809 49 316 0.0 0.0 0.00 0.00 0.00 83 1017.1
20260906123303 49 316 0.0 0.0 0.00 0.00 0.00 83 1017.1
20260906122803 49 316 0.0 0.0 0.00 0.00 0.00 83 1017.1
20260906122455 49 316 0.0 0.0 0.00 0.00 0.00 83 1017.0
20260906122408 49 316 0.0 0.0 0.00 0.00 0.00 83 1017.1
20260906121302 49 316 0.0 0.0 0.00 0.00 0.00 82 1017.1
20260906120802 50 316 0.0 0.0 0.00 0.00 0.00 83 1017.1
20260906120302 50 316 0.0 0.0 0.00 0.00 0.00 82 1017.0
20260906120120 50 316 0.0 0.0 0.00 0.00 0.00 83 1017.0
20260906115306 50 316 0.0 0.0 0.00 0.00 0.00 83 1017.1
20260906114800 50 316 0.0 0.0 0.00 0.00 0.00 82 1017.1
20260906114302 50 316 0.0 0.0 0.00 0.00 0.00 83 1017.2
20260906113801 50 316 0.0 0.0 0.00 0.00 0.00 82 1017.3
20260906113302 50 316 0.0 0.0 0.00 0.00 0.00 82 1017.2
20260906112804 50 316 0.0 0.0 0.00 0.00 0.00 82 1017.1
20260906112306 50 316 0.0 0.0 0.00 0.00 0.00 82 1017.0
20260906111802 50 316 0.0 0.0 0.00 0.00 0.00 82 1016.9
20260906111609 50 316 0.0 0.0 0.00 0.00 0.00 82 1017.1
20260906110800 51 316 0.0 0.0 0.00 0.00 0.00 82 1017.3
20260906110309 51 316 0.0 0.0 0.00 0.00 0.00 81 1017.2
20260906105806 51 316 0.0 0.0 0.00 0.00 0.00 81 1017.4
20260906105621 51 316 0.0 0.0 0.00 0.00 0.00 81 1017.4
20260906104803 51 316 0.0 0.0 0.00 0.00 0.00 80 1017.6
20260906104612 52 316 0.0 0.0 0.00 0.00 0.00 80 1017.6
20260906103755 52 316 0.0 0.0 0.00 0.00 0.00 81 1017.8
20260906103256 52 316 0.0 0.0 0.00 0.00 0.00 81 1017.9
20260906102756 52 316 0.0 0.0 0.00 0.00 0.00 81 1017.9
20260906102252 52 316 0.0 0.0 0.00 0.00 0.00 81 1018.2
20260906101752 52 316 0.0 0.0 0.00 0.00 0.00 81 1018.1
20260906101252 52 316 0.0 0.0 0.00 0.00 0.00 80 1018.0
20260906100750 52 316 0.0 0.0 0.00 0.00 0.00 80 1017.9
20260906100250 52 316 0.0 0.0 0.00 0.00 0.00 80 1017.9
20260906095750 52 316 0.0 0.0 0.00 0.00 0.00 80 1017.9
20260906095252 52 316 0.0 0.0 0.00 0.00 0.00 80 1017.8
20260906094750 52 316 0.0 0.0 0.00 0.00 0.00 80 1017.5
20260906094250 52 316 0.0 0.0 0.00 0.00 0.00 80 1017.4
20260906093750 52 316 0.0 0.0 0.00 0.00 0.00 79 1017.3
20260906093250 52 316 0.0 0.0 0.00 0.00 0.00 79 1017.3
20260906092747 53 316 0.0 0.0 0.00 0.00 0.00 78 1017.0
20260906092243 53 316 0.0 0.0 0.00 0.00 0.00 78 1017.0
20260906091744 53 316 0.0 0.0 0.00 0.00 0.00 78 1016.9
20260906091549 53 316 0.0 0.0 0.00 0.00 0.00 78 1016.9
20260906090743 54 316 0.0 0.0 0.00 0.00 0.00 77 1016.9
20260906090607 54 316 0.0 0.0 0.00 0.00 0.00 76 1016.9
20260906085742 54 317 0.0 0.0 0.00 0.00 0.00 76 1017.0
20260906085605 55 316 0.0 0.0 0.00 0.00 0.00 75 1016.8
20260906084746 55 316 0.0 4.0 0.00 0.00 0.00 75 1016.9
20260906084237 55 316 0.0 4.0 0.00 0.00 0.00 74 1017.0
20260906083738 55 316 0.0 4.0 0.00 0.00 0.00 74 1017.1
20260906083238 55 316 0.0 4.0 0.00 0.00 0.00 74 1017.1
20260906082736 55 317 0.0 2.0 0.00 0.00 0.00 74 1017.2
20260906082239 55 318 0.0 2.0 0.00 0.00 0.00 73 1017.3
20260906082048 55 318 0.0 0.0 0.00 0.00 0.00 73 1017.4
20260906081553 56 318 0.0 3.0 0.00 0.00 0.00 73 1017.4
20260906080732 56 317 0.0 3.0 0.00 0.00 0.00 73 1017.5
20260906080436 56 318 0.0 0.0 0.00 0.00 0.00 73 1017.5
20260906080341 56 317 0.0 1.0 0.00 0.00 0.00 73 1017.5
20260906075548 56 318 0.0 0.0 0.00 0.00 0.00 72 1017.5
20260906075044 56 318 0.0 2.0 0.00 0.00 0.00 71 1017.5
20260906074229 57 318 0.0 2.0 0.00 0.00 0.00 71 1017.6
20260906073729 57 318 0.0 2.0 0.00 0.00 0.00 71 1017.6
20260906073547 57 317 0.0 2.0 0.00 0.00 0.00 70 1017.6
20260906072729 57 316 0.0 2.0 0.00 0.00 0.00 70 1017.6
20260906072230 58 316 0.0 2.0 0.00 0.00 0.00 70 1017.6
20260906072044 58 316 0.0 2.0 0.00 0.00 0.00 69 1017.5
20260906071230 58 316 0.0 4.0 0.00 0.00 0.00 69 1017.5
20260906070731 58 316 0.0 4.0 0.00 0.00 0.00 69 1017.6
20260906070238 58 316 0.0 4.0 0.00 0.00 0.00 69 1017.6
20260906065729 58 319 0.0 4.0 0.00 0.00 0.00 69 1017.8
20260906065228 58 320 0.0 3.0 0.00 0.00 0.00 69 1017.8
20260906064731 58 320 0.0 3.0 0.00 0.00 0.00 69 1017.8
20260906064230 58 320 0.0 7.0 0.00 0.00 0.00 68 1017.6
20260906063730 58 320 0.0 7.0 0.00 0.00 0.00 68 1017.5
20260906063543 58 320 1.0 7.0 0.00 0.00 0.00 68 1017.5
20260906062729 58 285 0.0 7.0 0.00 0.00 0.00 68 1017.5
20260906062230 58 293 0.0 5.0 0.00 0.00 0.00 68 1017.5
20260906061728 58 293 1.0 5.0 0.00 0.00 0.00 68 1017.5
20260906061229 58 316 0.0 5.0 0.00 0.00 0.00 68 1017.5
20260906060730 58 318 0.0 7.0 0.00 0.00 0.00 68 1017.5
20260906060543 59 303 0.0 4.0 0.00 0.00 0.00 68 1017.6
20260906060538 59 297 0.0 4.0 0.00 0.00 0.00 68 1017.6
20260906060432 59 298 0.0 7.0 0.00 0.00 0.00 68 1017.5
20260906054729 59 298 0.0 3.0 0.00 0.00 0.00 67 1017.6
20260906054230 59 298 0.0 3.0 0.00 0.00 0.00 68 1017.6
20260906053730 59 298 0.0 3.0 0.00 0.00 0.00 68 1017.5
20260906053229 59 298 0.0 2.0 0.00 0.00 0.00 69 1017.5
20260906052730 60 298 0.0 2.0 0.00 0.00 0.00 68 1017.5
20260906052544 60 299 0.0 2.0 0.00 0.00 0.00 67 1017.5
20260906051729 60 298 0.0 1.0 0.00 0.00 0.00 67 1017.5
20260906051230 60 299 0.0 1.0 0.00 0.00 0.00 66 1017.5
20260906051050 60 299 0.0 1.0 0.00 0.00 0.00 65 1017.5
20260906050544 60 298 0.0 0.0 0.00 0.00 0.00 64 1017.5
20260906045729 60 299 0.0 1.0 0.00 0.00 0.00 63 1017.5
20260906045228 61 299 0.0 3.0 0.00 0.00 0.00 63 1017.6
20260906044725 61 299 0.0 3.0 0.00 0.00 0.00 63 1017.5
20260906044226 61 300 0.0 1.0 0.00 0.00 0.00 64 1017.4
20260906044049 61 300 0.0 0.0 0.00 0.00 0.00 64 1017.4
20260906043224 62 300 0.0 0.0 0.00 0.00 0.00 64 1017.4
20260906042722 62 300 0.0 0.0 0.00 0.00 0.00 63 1017.4
20260906042220 62 299 0.0 3.0 0.00 0.00 0.00 63 1017.3
20260906041720 62 300 0.0 3.0 0.00 0.00 0.00 63 1017.4
20260906041219 62 300 0.0 3.0 0.00 0.00 0.00 63 1017.4
20260906040719 62 299 0.0 3.0 0.00 0.00 0.00 62 1017.3
20260906040220 62 278 0.0 6.0 0.00 0.00 0.00 62 1017.3
20260906035715 62 278 0.0 6.0 0.00 0.00 0.00 61 1017.4
20260906035217 62 283 0.0 2.0 0.00 0.00 0.00 62 1017.4
20260906034714 62 283 0.0 2.0 0.00 0.00 0.00 62 1017.4
20260906034213 62 282 0.0 2.0 0.00 0.00 0.00 62 1017.5
20260906034021 62 283 0.0 2.0 0.00 0.00 0.00 60 1017.4
20260906033212 63 282 0.0 2.0 0.00 0.00 0.00 59 1017.1
20260906032705 63 282 0.0 1.0 0.00 0.00 0.00 60 1017.0
20260906032203 63 282 0.0 3.0 0.00 0.00 0.00 59 1017.0
20260906032013 63 282 0.0 3.0 0.00 0.00 0.00 59 1016.9
20260906031203 63 282 0.0 0.0 0.00 0.00 0.00 60 1016.8
20260906030704 63 282 0.0 0.0 0.00 0.00 0.00 59 1016.7
20260906030204 63 282 0.0 2.0 0.00 0.00 0.00 59 1016.6
20260906025703 63 282 0.0 2.0 0.00 0.00 0.00 59 1016.6
20260906025346 63 280 0.0 1.0 0.00 0.00 0.00 58 1016.5
20260906025306 63 280 0.0 1.0 0.00 0.00 0.00 58 1016.5
20260906024203 63 280 0.0 1.0 0.00 0.00 0.00 59 1016.5
20260906023704 63 280 0.0 2.0 0.00 0.00 0.00 59 1016.5
20260906023515 63 280 0.0 2.0 0.00 0.00 0.00 59 1016.5
20260906022703 63 280 0.0 2.0 0.00 0.00 0.00 61 1016.4
20260906022204 63 280 0.0 0.0 0.00 0.00 0.00 65 1016.4
20260906021658 64 280 0.0 0.0 0.00 0.00 0.00 64 1016.4
20260906021521 64 280 0.0 0.0 0.00 0.00 0.00 63 1016.3
20260906020657 64 280 0.0 0.0 0.00 0.00 0.00 62 1016.2
20260906020154 65 280 0.0 0.0 0.00 0.00 0.00 61 1016.1
20260906015652 65 280 0.0 0.0 0.00 0.00 0.00 61 1016.1
20260906015333 66 280 0.0 0.0 0.00 0.00 0.00 57 1016.2
20260906015254 65 280 0.0 0.0 0.00 0.00 0.00 59 1016.1
20260906014153 66 280 0.0 0.0 0.00 0.00 0.00 57 1016.1
20260906013651 67 280 0.0 0.0 0.00 0.00 0.00 55 1016.2
20260906013151 67 280 0.0 0.0 0.00 0.00 0.00 52 1016.1
20260906012648 68 280 0.0 2.0 0.00 0.00 0.00 49 1016.2
20260906012150 69 280 0.0 2.0 0.00 0.00 0.00 48 1016.2
20260906011650 69 279 0.0 0.0 0.00 0.00 0.00 46 1016.2
20260906011150 69 279 0.0 0.0 0.00 0.00 0.00 44 1015.9
20260906010648 69 276 0.0 0.0 0.00 0.00 0.00 44 1016.1
20260906010148 69 276 0.0 0.0 0.00 0.00 0.00 43 1016.1
20260906005648 70 275 0.0 0.0 0.00 0.00 0.00 45 1015.9
20260906005151 70 274 0.0 0.0 0.00 0.00 0.00 43 1015.8
20260906004650 70 274 0.0 0.0 0.00 0.00 0.00 43 1015.8
20260906004148 70 274 0.0 1.0 0.00 0.00 0.00 42 1015.8
20260906003650 70 274 0.0 1.0 0.00 0.00 0.00 42 1015.7
20260906003148 70 274 0.0 1.0 0.00 0.00 0.00 42 1015.7
20260906002647 71 274 0.0 2.0 0.00 0.00 0.00 42 1015.8
20260906002144 71 274 0.0 3.0 0.00 0.00 0.00 40 1015.9
20260906001644 72 274 0.0 3.0 0.00 0.00 0.00 39 1015.9
20260906001206 73 271 0.0 4.0 0.00 0.00 0.00 35 1015.7
20260906001145 72 274 0.0 2.0 0.00 0.00 0.00 38 1015.9
20260906001140 73 273 0.0 4.0 0.00 0.00 0.00 37 1015.9
20260905235642 74 206 0.0 4.0 0.00 0.00 0.00 36 1015.7
20260905235147 74 205 0.0 4.0 0.00 0.00 0.00 35 1015.8
20260905234642 74 253 0.0 3.0 0.00 0.00 0.00 37 1015.9
20260905234142 74 252 0.0 3.0 0.00 0.00 0.00 37 1015.8
20260905233640 74 252 1.0 6.0 0.00 0.00 0.00 39 1015.8
20260905233142 74 256 1.0 6.0 0.00 0.00 0.00 37 1015.8
20260905232644 74 282 0.0 7.0 0.00 0.00 0.00 39 1015.8
20260905232454 74 278 1.0 7.0 0.00 0.00 0.00 41 1015.8
20260905231636 74 182 1.0 7.0 0.00 0.00 0.00 40 1015.8
20260905231140 74 253 1.0 9.0 0.00 0.00 0.00 40 1015.9
20260905230633 74 274 1.0 9.0 0.00 0.00 0.00 40 1015.8
20260905230133 74 233 1.0 8.0 0.00 0.00 0.00 40 1015.8
20260905225949 74 264 1.0 8.0 0.00 0.00 0.00 39 1015.8
20260905225451 74 183 1.0 5.0 0.00 0.00 0.00 41 1015.8
20260905224633 74 184 1.0 7.0 0.00 0.00 0.00 41 1015.8
20260905224442 74 152 1.0 7.0 0.00 0.00 0.00 41 1015.9
20260905223630 74 154 1.0 5.0 0.00 0.00 0.00 40 1015.9
20260905223131 74 191 0.0 4.0 0.00 0.00 0.00 42 1015.9
20260905222630 74 200 0.0 4.0 0.00 0.00 0.00 41 1015.9
20260905222131 73 145 0.0 4.0 0.00 0.00 0.00 43 1016.1
20260905221944 73 145 0.0 4.0 0.00 0.00 0.00 44 1016.1
20260905221130 72 208 1.0 4.0 0.00 0.00 0.00 44 1016.1
20260905220630 72 216 1.0 7.0 0.00 0.00 0.00 45 1016.2
20260905220130 72 231 1.0 7.0 0.00 0.00 0.00 46 1016.1
20260905215630 71 240 0.0 3.0 0.00 0.00 0.00 46 1016.1
20260905215133 71 241 1.0 4.0 0.00 0.00 0.00 45 1016.1
20260905214945 71 250 1.0 5.0 0.00 0.00 0.00 45 1016.3
20260905214131 72 248 0.0 5.0 0.00 0.00 0.00 43 1016.3
20260905213630 71 241 0.0 3.0 0.00 0.00 0.00 44 1016.3
20260905213133 71 243 0.0 3.0 0.00 0.00 0.00 45 1016.3
20260905212630 71 245 0.0 3.0 0.00 0.00 0.00 46 1016.3
20260905212321 71 262 1.0 6.0 0.00 0.00 0.00 50 1016.5
20260905212237 71 257 1.0 5.0 0.00 0.00 0.00 49 1016.4
20260905211129 70 290 1.0 6.0 0.00 0.00 0.00 50 1016.6
20260905210629 70 255 1.0 3.0 0.00 0.00 0.00 51 1016.6
20260905210130 69 253 1.0 7.0 0.00 0.00 0.00 53 1016.6
20260905205629 69 248 1.0 7.0 0.00 0.00 0.00 53 1016.6
20260905205130 69 270 0.0 7.0 0.00 0.00 0.00 54 1016.7
20260905204629 69 225 0.0 3.0 0.00 0.00 0.00 53 1016.7
20260905204439 69 224 0.0 3.0 0.00 0.00 0.00 53 1016.8
20260905203953 69 214 0.0 3.0 0.00 0.00 0.00 53 1016.8
20260905203439 69 216 0.0 3.0 0.00 0.00 0.00 51 1016.8